Torna al catalogo

STARLINK-4442

AttivoComunicazioniPO
NORAD 53480·PAYLOAD·🇺🇸 United States

Lanciato Aug 12, 2022 da Vandenberg Space Force Base

Loading…

Prossimi Passaggi (prossime 24 ore)

TLE

AggiornatoSource: CelesTrak SupGP

Epoca: Sep 14, 2026, 21:38 UTC

1 53480C 22099R   26257.90187500  .00468120  00000+0  56472-3 0  2578
2 53480  97.6123  30.2010 0002084 354.7514 328.2709 16.08004181    10

Traccia STARLINK-4442 in tempo reale con AllMySat

Download on the App Store